Regional Weather Roundup
Issued by NWS Bismarck, ND

Home | Current Version | Previous Version | Text Only | Print | Product List | Glossary Off
Versions: 1 2 3 4 5 6 7 8 9 10 11 12 13 14 15 16 17 18 19 20 21 22 23 24 25 26 27 28 29 30 31 32 33 34 35 36 37 38 39 40 41 42 43 44 45 46 47 48 49 50

000
ASUS43 KBIS 231620
RWRBIS

NWR BROADCAST TEXT
NATIONAL WEATHER SERVICE BISMARCK ND
1100 AM CDT WED JUL 23 2014

NOTE: "FAIR" INDICATES FEW OR NO CLOUDS BELOW 12,000 FEET WITH NO
SIGNIFICANT WEATHER AND/OR OBSTRUCTIONS TO VISIBILITY.


CITY           SKY/WX    TMP DP  RH WIND       PRES   REMARKS
WILLISTON      SUNNY     79  61  53 S8        30.20F
MINOT          CLOUDY    68  63  84 E14       30.27S
MINOT AFB      MOSUNNY   70  67  89 E17       30.26F
BISMARCK       PTSUNNY   74  60  61 SE15      30.27F
DICKINSON      SUNNY     75  62  64 S17       30.23S
GARRISON         N/A     74  65  73 S8        30.25S
HETTINGER ARPT MOSUNNY   74  62  66 SE12      30.25F
JAMESTOWN      MOSUNNY   69  60  73 E7        30.31S
CARRINGTON     FAIR      68  64  88 SE9       30.32F
CROSBY           N/A     68  68 100 E15       30.24F
HARVEY         CLOUDY    66  64  94 E14       30.30S
HAZEN          FAIR      75  63  64 S13G20    30.25S
LINTON         FAIR      73  61  64 S16G23    30.28S
MANDAN         CLOUDY    72  63  73 S13G18    30.28S
RUGBY          PTSUNNY   64  57  77 E12       30.31S
STANLEY        PTSUNNY   72  68  88 SE16      30.25S
TIOGA          FAIR      75  72  88 E16       30.26F
WATFORD CITY   FAIR      77  63  61 SE8G17    30.19S
$$

CITY           SKY/WX    TMP DP  RH WIND       PRES   REMARKS
GRAND FORKS    PTSUNNY   69  59  70 N7        30.30S
GRAND FORKS AF PTSUNNY   68  59  74 N8        30.32S
DEVILS LAKE    CLOUDY    66  54  63 E10       30.32S
FARGO          CLOUDY    71  60  68 NE7       30.29F
CANDO          PTSUNNY   66  52  59 E9        30.34S
CAVALIER       PTSUNNY   66  55  68 NE5       30.33S
GRAFTON        FAIR      66  57  72 N10       30.31F
GWINNER        SUNNY     72  57  60 CALM      30.32S
LANGDON        PTSUNNY   68  50  52 NE7       30.34S
ROLLA          PTSUNNY   66  50  55 E12       30.35F
WALHALLA         N/A     66  57  72 NE8         N/A
$$

CITY           SKY/WX    TMP DP  RH WIND       PRES   REMARKS
ABERDEEN       SUNNY     73  58  59 S8        30.29F
MOBRIDGE       SUNNY     75  61  61 S17       30.25S
BUFFALO          N/A     76  63  64 SE6       30.17F
RAPID CITY     SUNNY     79  59  50 S20       30.23F
GLASGOW        SUNNY     78  61  55 SE17G23   30.16S
SIDNEY         SUNNY     81  63  54 CALM      30.18F
WOLF POINT     SUNNY     79  60  52 E13       30.17F
GLENDIVE       SUNNY     75  61  60 E7        30.18F
MILES CITY     SUNNY     80  63  55 E9        30.13F
BAKER          SUNNY     76  63  64 SE9       30.22F
$$

CITY           SKY/WX    TMP DP  RH WIND       PRES   REMARKS
BILLINGS       PTSUNNY   69  58  67 CALM      30.13F
GREAT FALLS    PTSUNNY   70  60  70 S6        30.13F
REGINA         MOSUNNY   72  61  68 SE15G21   30.26S
ESTEVAN        PTSUNNY   70  61  73 E16       30.26F
$$




USA.gov is the U.S. government's official web portal to all federal, state and local government web resources and services.